GW6319 Weather Reports


time (UTC)temp
C
wind
direction
speed
KPH
gust
KPH
rain 1hr
cm
rain 24hr
cm
rain mn
cm
humidity
%
barometer
mb
20260510173613 31 95 3.2 6.4 0.00 0.00 0.00 62 1014.0
20260510173110 30 282 6.4 6.4 0.00 0.00 0.00 61 1014.1
20260510172605 30 134 3.2 4.8 0.00 0.00 0.00 65 1014.1
20260510172102 30 281 4.8 6.4 0.00 0.00 0.00 60 1014.0
20260510171558 31 279 9.7 14.5 0.00 0.00 0.00 56 1014.2
20260510171056 31 238 4.8 6.4 0.00 0.00 0.00 56 1014.0
20260510170552 31 287 4.8 6.4 0.00 0.00 0.00 57 1014.0
20260510170049 31 260 3.2 6.4 0.00 0.00 0.00 56 1014.0
20260510165544 32 248 3.2 4.8 0.00 0.00 0.00 54 1014.1
20260510165041 33 221 1.6 3.2 0.00 0.00 0.00 51 1014.1
20260510164538 32 192 3.2 3.2 0.00 0.00 0.00 52 1014.3
20260510164034 31 195 1.6 4.8 0.00 0.00 0.00 57 1014.3
20260510163530 32 231 3.2 9.7 0.00 0.00 0.00 54 1014.6
20260510163026 32 142 4.8 6.4 0.00 0.00 0.00 53 1014.3
20260510162522 32 208 3.2 4.8 0.00 0.00 0.00 56 1014.7
20260510162018 32 208 3.2 4.8 0.00 0.00 0.00 53 1014.6
20260510161514 32 151 3.2 4.8 0.00 0.00 0.00 55 1014.7
20260510161011 32 219 1.6 4.8 0.00 0.00 0.00 54 1014.8
20260510160509 32 279 3.2 6.4 0.00 0.00 0.00 55 1014.6
20260510160008 32 234 1.6 4.8 0.00 0.00 0.00 55 1014.7
20260510155504 31 171 1.6 1.6 0.00 0.00 0.00 59 1014.6
20260510155001 31 231 4.8 4.8 0.00 0.00 0.00 58 1014.7
20260510154457 30 175 3.2 3.2 0.00 0.00 0.00 59 1014.7
20260510153956 30 229 3.2 3.2 0.00 0.00 0.00 59 1014.8
20260510153452 31 163 1.6 3.2 0.00 0.00 0.00 61 1014.8
20260510152949 31 229 1.6 4.8 0.00 0.00 0.00 57 1014.9
20260510152446 31 180 4.8 6.4 0.00 0.00 0.00 58 1014.7
20260510151943 31 159 4.8 6.4 0.00 0.00 0.00 61 1014.7
20260510151440 31 147 3.2 4.8 0.00 0.00 0.00 60 1014.9
20260510150936 30 201 8.0 9.7 0.00 0.00 0.00 62 1015.0
20260510150432 30 178 1.6 1.6 0.00 0.00 0.00 61 1014.6
20260510145928 30 212 1.6 3.2 0.00 0.00 0.00 64 1015.0
20260510145425 30 197 1.6 4.8 0.00 0.00 0.00 63 1014.9
20260510144921 30 156 1.6 3.2 0.00 0.00 0.00 65 1014.7
20260510144418 29 192 3.2 3.2 0.00 0.00 0.00 65 1014.8
20260510143913 29 153 1.6 3.2 0.00 0.00 0.00 67 1014.7
20260510143409 30 252 3.2 6.4 0.00 0.00 0.00 65 1014.8
20260510142906 29 200 1.6 3.2 0.00 0.00 0.00 66 1014.9
20260510142403 29 226 3.2 4.8 0.00 0.00 0.00 67 1014.7
20260510141859 28 186 3.2 3.2 0.00 0.00 0.00 67 1014.8
20260510141357 29 196 1.6 3.2 0.00 0.00 0.00 69 1014.8
20260510140854 28 226 3.2 4.8 0.00 0.00 0.00 68 1014.8
20260510140350 28 204 3.2 3.2 0.00 0.00 0.00 68 1014.7
20260510135849 28 155 1.6 6.4 0.00 0.00 0.00 69 1014.6
20260510135345 28 242 1.6 6.4 0.00 0.00 0.00 70 1014.8
20260510134843 28 176 1.6 3.2 0.00 0.00 0.00 70 1014.6
20260510134339 28 216 3.2 3.2 0.00 0.00 0.00 73 1014.6
20260510133835 27 217 1.6 3.2 0.00 0.00 0.00 72 1014.4
20260510133332 27 162 1.6 4.8 0.00 0.00 0.00 74 1014.5
20260510132827 27 209 3.2 4.8 0.00 0.00 0.00 73 1014.4
20260510132326 27 166 0.0 1.6 0.00 0.00 0.00 77 1014.4
20260510131822 26 154 0.0 1.6 0.00 0.00 0.00 79 1014.3
20260510131320 26 193 1.6 3.2 0.00 0.00 0.00 79 1014.5
20260510130816 26 163 1.6 3.2 0.00 0.00 0.00 81 1014.4
20260510130313 25 175 1.6 3.2 0.00 0.00 0.00 83 1014.5
20260510125809 25 176 0.0 1.6 0.00 0.00 0.00 82 1014.6
20260510125307 25 182 1.6 1.6 0.00 0.00 0.00 85 1014.6
20260510124803 25 184 1.6 3.2 0.00 0.00 0.00 85 1014.4
20260510124300 24 197 1.6 1.6 0.00 0.00 0.00 86 1014.5
20260510123755 24 197 0.0 0.0 0.00 0.00 0.00 89 1014.4
20260510123251 23 198 0.0 1.6 0.00 0.00 0.00 90 1014.2
20260510122748 23 198 0.0 1.6 0.00 0.00 0.00 92 1014.3
20260510122244 22 198 0.0 1.6 0.00 0.00 0.00 93 1014.1
20260510121740 22 200 1.6 3.2 0.00 0.00 0.00 94 1014.0
20260510121238 22 179 0.0 1.6 0.00 0.00 0.00 95 1014.0
20260510120735 22 154 0.0 1.6 0.00 0.00 0.00 96 1013.7
20260510120232 22 154 1.6 1.6 0.00 0.00 0.00 96 1013.6
20260510115727 22 154 0.0 0.0 0.00 0.00 0.00 97 1013.6
20260510115226 22 154 0.0 1.6 0.00 0.00 0.00 97 1013.5
20260510114720 21 154 0.0 0.0 0.00 0.00 0.00 97 1013.6
20260510114218 21 154 0.0 0.0 0.00 0.00 0.00 97 1013.6
20260510113713 21 154 0.0 0.0 0.00 0.00 0.00 97 1013.4
20260510113210 21 154 0.0 0.0 0.00 0.00 0.00 97 1013.3
20260510112706 21 154 0.0 0.0 0.00 0.00 0.00 97 1013.4
20260510112204 21 154 0.0 0.0 0.00 0.00 0.00 97 1013.3
20260510111659 21 154 0.0 0.0 0.00 0.00 0.00 97 1013.0
20260510111157 21 154 0.0 0.0 0.00 0.00 0.00 97 1013.0
20260510110656 21 154 0.0 0.0 0.00 0.00 0.00 97 1013.1
20260510110154 21 154 0.0 0.0 0.00 0.00 0.00 97 1013.0
20260510105650 21 154 0.0 0.0 0.00 0.00 0.00 97 1012.7
20260510105150 21 154 0.0 0.0 0.00 0.00 0.00 96 1012.7
20260510104647 21 154 0.0 0.0 0.00 0.00 0.00 96 1012.8
20260510104143 21 154 0.0 0.0 0.00 0.00 0.00 96 1012.5
20260510103640 21 154 0.0 0.0 0.00 0.00 0.00 96 1012.5
20260510103137 21 154 0.0 0.0 0.00 0.00 0.00 96 1012.5
20260510102632 21 154 0.0 0.0 0.00 0.00 0.00 96 1012.6
20260510102128 21 154 0.0 0.0 0.00 0.00 0.00 96 1012.4
20260510101626 21 154 0.0 0.0 0.00 0.00 0.00 96 1012.5
20260510101124 21 154 0.0 0.0 0.00 0.00 0.00 96 1012.4
20260510100620 21 154 0.0 0.0 0.00 0.00 0.00 96 1012.1
20260510100117 21 154 0.0 0.0 0.00 0.00 0.00 95 1012.2
20260510095613 21 154 0.0 0.0 0.00 0.00 0.00 95 1012.2
20260510095113 22 154 0.0 0.0 0.00 0.00 0.00 95 1012.3
20260510094612 22 154 0.0 0.0 0.00 0.00 0.00 95 1012.2
20260510094108 22 154 0.0 0.0 0.00 0.00 0.00 95 1012.0
20260510093604 22 154 0.0 0.0 0.00 0.00 0.00 95 1011.9
20260510093101 22 154 0.0 0.0 0.00 0.00 0.00 95 1011.8
20260510092558 22 154 0.0 1.6 0.00 0.00 0.00 95 1011.9
20260510092057 22 154 0.0 0.0 0.00 0.00 0.00 95 1011.9
20260510091555 22 154 0.0 0.0 0.00 0.00 0.00 95 1011.8
20260510091050 22 154 0.0 0.0 0.00 0.00 0.00 95 1011.7
20260510090548 22 154 0.0 0.0 0.00 0.00 0.00 94 1011.7
20260510090043 22 154 0.0 0.0 0.00 0.00 0.00 94 1011.7
20260510085538 22 154 0.0 0.0 0.00 0.00 0.00 94 1011.6
20260510085035 22 154 1.6 1.6 0.00 0.00 0.00 94 1011.3
20260510084531 22 154 0.0 0.0 0.00 0.00 0.00 94 1011.5
20260510084028 22 154 0.0 1.6 0.00 0.00 0.00 94 1011.2
20260510083525 22 148 0.0 1.6 0.00 0.00 0.00 94 1011.4
20260510083021 22 133 0.0 1.6 0.00 0.00 0.00 93 1011.3
20260510082518 22 132 1.6 3.2 0.00 0.00 0.00 93 1011.3
20260510082018 22 148 3.2 3.2 0.00 0.00 0.00 93 1011.3
20260510081514 22 157 1.6 1.6 0.00 0.00 0.00 94 1011.1
20260510081010 22 158 0.0 0.0 0.00 0.00 0.00 94 1011.3
20260510080509 22 158 0.0 0.0 0.00 0.00 0.00 94 1011.4
20260510080006 22 158 0.0 0.0 0.00 0.00 0.00 94 1011.4
20260510075503 22 156 1.6 1.6 0.00 0.00 0.00 94 1011.4
20260510075000 22 143 0.0 0.0 0.00 0.00 0.00 94 1011.4
20260510074458 22 80 3.2 4.8 0.00 0.00 0.00 94 1011.3
20260510073953 22 133 3.2 4.8 0.00 0.00 0.00 94 1011.4
20260510073449 22 119 1.6 3.2 0.00 0.00 0.00 94 1011.3
20260510072946 22 141 1.6 4.8 0.00 0.00 0.00 94 1011.0
20260510072443 22 143 4.8 4.8 0.00 0.00 0.00 94 1011.0
20260510071938 22 148 0.0 3.2 0.00 0.00 0.00 94 1011.2
20260510071434 22 137 1.6 3.2 0.00 0.00 0.00 94 1011.6
20260510070933 22 139 1.6 3.2 0.00 0.00 0.00 94 1011.2
20260510070430 22 131 3.2 3.2 0.00 0.00 0.00 94 1011.4
20260510065925 21 145 1.6 3.2 0.00 0.00 0.00 94 1011.6
20260510065422 21 160 1.6 3.2 0.00 0.00 0.00 94 1011.5
20260510064918 21 135 0.0 3.2 0.00 0.00 0.00 94 1011.5
20260510064417 21 140 1.6 3.2 0.00 0.00 0.00 94 1011.5
20260510063913 21 127 1.6 3.2 0.00 0.00 0.00 94 1011.8
20260510063409 21 121 1.6 3.2 0.00 0.00 0.00 94 1011.9
20260510062907 21 174 0.0 0.0 0.00 0.00 0.00 94 1011.9
20260510062401 21 174 1.6 3.2 0.00 0.00 0.00 94 1011.9
20260510061857 21 175 0.0 1.6 0.00 0.00 0.00 94 1012.1
20260510061354 21 183 1.6 1.6 0.00 0.00 0.00 94 1012.1
20260510060850 21 183 0.0 0.0 0.00 0.00 0.00 94 1012.3
20260510060347 21 183 1.6 1.6 0.00 0.00 0.00 94 1012.3
20260510055844 21 183 1.6 1.6 0.00 0.00 0.00 94 1012.3
20260510055343 21 183 0.0 1.6 0.00 0.00 0.00 94 1012.4
20260510054842 21 183 0.0 0.0 0.00 0.00 0.00 94 1012.5
20260510054338 21 183 0.0 0.0 0.00 0.00 0.00 95 1012.5
20260510053833 21 183 0.0 0.0 0.00 0.00 0.00 94 1012.5
20260510053329 21 183 0.0 0.0 0.00 0.00 0.00 94 1012.8
20260510052825 21 183 0.0 0.0 0.00 0.00 0.00 94 1012.9
20260510052321 21 183 0.0 0.0 0.00 0.00 0.00 94 1012.8
20260510051818 21 183 0.0 0.0 0.00 0.00 0.00 93 1012.9
20260510051315 21 183 1.6 1.6 0.00 0.00 0.00 94 1012.9
20260510050812 21 183 0.0 0.0 0.00 0.00 0.00 94 1012.9
20260510050308 21 183 0.0 1.6 0.00 0.00 0.00 94 1013.3
20260510045805 21 183 0.0 0.0 0.00 0.00 0.00 94 1013.0
20260510045305 21 183 0.0 0.0 0.00 0.00 0.00 94 1013.3
20260510044759 21 183 0.0 0.0 0.00 0.00 0.00 94 1013.2
20260510044256 21 183 0.0 0.0 0.00 0.00 0.00 94 1013.3
20260510043752 21 183 0.0 0.0 0.00 0.00 0.00 93 1013.3
20260510043248 21 183 0.0 0.0 0.00 0.00 0.00 93 1013.5
20260510042746 21 183 0.0 0.0 0.00 0.00 0.00 93 1013.6
20260510042241 21 183 0.0 0.0 0.00 0.00 0.00 93 1013.5
20260510041738 21 183 0.0 1.6 0.00 0.00 0.00 92 1013.6
20260510041236 21 183 0.0 0.0 0.00 0.00 0.00 93 1013.7
20260510040733 21 183 0.0 0.0 0.00 0.00 0.00 93 1013.4
20260510040230 22 183 1.6 1.6 0.00 0.00 0.00 93 1013.4
20260510035724 21 183 0.0 0.0 0.00 0.99 0.99 93 1013.4
20260510035221 21 183 0.0 1.6 0.00 0.99 0.99 93 1013.4
20260510034717 21 184 0.0 0.0 0.00 0.99 0.99 94 1013.4
20260510034215 21 184 0.0 0.0 0.00 0.99 0.99 94 1013.5
20260510033711 21 184 0.0 0.0 0.00 0.99 0.99 94 1013.6
20260510033209 21 183 0.0 1.6 0.00 0.99 0.99 94 1013.6
20260510032705 21 182 0.0 0.0 0.00 0.99 0.99 94 1013.5
20260510032201 21 182 0.0 1.6 0.00 0.99 0.99 94 1013.3
20260510031655 21 181 0.0 0.0 0.00 0.99 0.99 94 1013.3
20260510031153 21 181 0.0 0.0 0.00 0.99 0.99 94 1013.6
20260510030652 21 180 0.0 0.0 0.00 0.99 0.99 94 1013.3
20260510030150 21 180 0.0 0.0 0.00 0.99 0.99 94 1013.3
20260510025647 21 180 0.0 0.0 0.00 0.99 0.99 94 1013.3
20260510025144 21 180 0.0 0.0 0.00 0.99 0.99 94 1013.3
20260510024641 21 180 0.0 0.0 0.43 0.99 0.99 94 1013.2
20260510024138 21 180 0.0 1.6 0.71 0.99 0.99 94 1012.9
20260510023633 21 179 0.0 0.0 0.48 0.91 0.91 94 1013.1
20260510023131 21 179 0.0 1.6 0.30 0.86 0.86 93 1013.0
20260510022631 21 179 0.0 1.6 0.30 0.84 0.84 93 1012.9
20260510022126 21 179 0.0 1.6 0.30 0.81 0.81 93 1012.9
20260510021622 21 178 0.0 1.6 0.30 0.79 0.79 92 1012.9
20260510021120 22 180 0.0 1.6 0.48 0.76 0.76 90 1012.8
20260510020619 22 174 1.6 1.6 0.61 0.74 0.74 89 1012.7
20260510020115 22 170 0.0 1.6 0.30 0.69 0.69 86 1012.6
20260510015612 22 79 0.0 0.0 0.00 0.64 0.64 83 1012.6
20260510015108 22 79 0.0 0.0 0.00 0.64 0.64 83 1012.5
20260510014604 23 79 0.0 0.0 0.00 0.64 0.64 83 1012.6
20260510014102 23 79 0.0 0.0 0.00 0.64 0.64 82 1012.4
20260510013555 23 79 0.0 0.0 0.00 0.64 0.64 81 1012.6
20260510013052 23 79 0.0 0.0 0.00 0.64 0.64 81 1012.5
20260510012551 23 79 0.0 0.0 0.00 0.64 0.64 80 1012.6
20260510012048 23 79 0.0 0.0 0.00 0.64 0.64 80 1012.4
20260510011547 23 79 0.0 0.0 0.00 0.64 0.64 80 1012.7
20260510011044 23 79 0.0 0.0 0.00 0.64 0.64 80 1012.4
20260510010540 23 79 0.0 0.0 0.00 0.64 0.64 80 1012.2
20260510010037 23 79 0.0 1.6 0.00 0.64 0.64 79 1012.0
20260510005533 23 37 0.0 0.0 0.00 0.64 0.64 79 1012.1
20260510005031 23 37 0.0 0.0 0.00 0.64 0.64 79 1012.1
20260510004528 23 37 0.0 0.0 0.00 0.64 0.64 78 1011.9
20260510004027 23 37 0.0 1.6 0.00 0.64 0.64 78 1011.5
20260510003523 23 37 1.6 1.6 0.00 0.64 0.64 78 1011.7
20260510003018 23 36 0.0 1.6 0.00 0.64 0.64 77 1011.8
20260510002514 23 42 3.2 3.2 0.00 0.64 0.64 77 1011.8
20260510002011 23 27 0.0 1.6 0.00 0.64 0.64 77 1011.7
20260510001508 23 6 0.0 3.2 0.00 0.64 0.64 76 1011.8
20260510001006 23 8 1.6 3.2 0.00 0.64 0.64 75 1011.8
20260510000501 23 35 3.2 4.8 0.00 0.64 0.64 75 1011.7
20260509235958 23 10 3.2 3.2 0.00 0.64 0.64 75 1011.7
20260509235455 24 3 1.6 1.6 0.00 0.64 0.64 75 1011.6
20260509234951 24 44 1.6 3.2 0.00 0.64 0.64 74 1011.5
20260509234448 24 40 1.6 3.2 0.00 0.64 0.64 74 1011.5
20260509233946 24 342 3.2 4.8 0.00 0.64 0.64 74 1011.5
20260509233443 24 293 3.2 4.8 0.00 0.64 0.64 75 1011.5
20260509232939 24 268 4.8 4.8 0.00 0.64 0.64 75 1011.5
20260509232437 24 337 3.2 6.4 0.00 0.64 0.64 75 1011.4
20260509231932 25 273 4.8 4.8 0.00 0.64 0.64 76 1011.5
20260509231429 25 278 3.2 4.8 0.00 0.64 0.64 77 1011.5
20260509230928 25 39 0.0 4.8 0.00 0.64 0.64 77 1011.4
20260509230424 25 290 6.4 6.4 0.00 0.64 0.64 76 1011.6
20260509225920 25 6 3.2 4.8 0.00 0.64 0.64 77 1011.6
20260509225417 25 325 8.0 9.7 0.00 0.64 0.64 76 1011.5
20260509224913 25 314 4.8 11.3 0.00 0.64 0.64 76 1011.3
20260509224414 25 332 4.8 6.4 0.00 0.64 0.64 76 1011.4
20260509223911 26 316 6.4 11.3 0.00 0.64 0.64 75 1011.3
20260509223408 27 32 4.8 6.4 0.00 0.64 0.64 73 1011.2
20260509222905 27 40 1.6 4.8 0.00 0.64 0.64 69 1010.9
20260509222400 27 270 6.4 9.7 0.00 0.64 0.64 65 1010.9
20260509221855 27 335 1.6 3.2 0.00 0.64 0.64 65 1010.8
20260509221353 27 339 6.4 9.7 0.00 0.64 0.64 65 1010.8
20260509220849 27 323 3.2 3.2 0.00 0.64 0.64 65 1010.7
20260509220345 27 281 3.2 4.8 0.00 0.64 0.64 64 1010.6
20260509215840 27 276 1.6 4.8 0.00 0.64 0.64 64 1010.7
20260509215337 28 279 6.4 6.4 0.00 0.64 0.64 63 1010.7
20260509214835 28 339 3.2 4.8 0.00 0.64 0.64 65 1010.5
20260509214332 28 329 3.2 4.8 0.00 0.64 0.64 64 1010.6
20260509213829 28 338 4.8 4.8 0.00 0.64 0.64 63 1010.4
20260509213324 28 293 3.2 6.4 0.00 0.64 0.64 63 1010.4
20260509212822 28 263 4.8 6.4 0.00 0.64 0.64 63 1010.4
20260509212320 28 277 3.2 3.2 0.00 0.64 0.64 64 1010.4
20260509211815 28 342 1.6 3.2 0.00 0.64 0.64 65 1010.3
20260509211311 28 5 8.0 11.3 0.00 0.64 0.64 64 1010.2
20260509210808 28 283 1.6 3.2 0.00 0.64 0.64 63 1010.0
20260509210306 28 269 4.8 6.4 0.00 0.64 0.64 62 1010.2
20260509205805 29 281 3.2 3.2 0.00 0.64 0.64 63 1010.3
20260509205300 29 293 3.2 6.4 0.00 0.64 0.64 62 1010.2
20260509204756 29 267 1.6 4.8 0.00 0.64 0.64 62 1010.3
20260509204252 29 278 3.2 6.4 0.00 0.64 0.64 63 1010.2
20260509203748 29 276 3.2 3.2 0.00 0.64 0.64 61 1010.2
20260509203247 29 267 3.2 3.2 0.00 0.64 0.64 60 1010.3
20260509202742 29 279 4.8 4.8 0.00 0.64 0.64 60 1010.1
20260509202239 29 275 4.8 9.7 0.00 0.64 0.64 58 1010.2
20260509201738 28 252 1.6 1.6 0.00 0.64 0.64 64 1010.2
20260509201235 28 259 0.0 3.2 0.00 0.64 0.64 64 1010.2
20260509200732 28 265 3.2 4.8 0.00 0.64 0.64 65 1010.2
20260509200227 27 277 3.2 4.8 0.00 0.64 0.64 65 1010.3
20260509195723 27 269 0.0 1.6 0.00 0.64 0.64 72 1010.3
20260509195218 27 268 1.6 1.6 0.00 0.64 0.64 71 1010.2
20260509194713 27 269 1.6 1.6 0.00 0.64 0.64 72 1010.3
20260509194210 27 269 0.0 1.6 0.00 0.64 0.64 74 1010.2
20260509193706 27 268 1.6 3.2 0.00 0.64 0.64 75 1010.3
20260509193206 27 267 0.0 1.6 0.00 0.64 0.64 78 1010.3
20260509192703 27 250 3.2 4.8 0.00 0.64 0.64 77 1010.3
20260509192158 27 244 3.2 3.2 0.00 0.64 0.64 82 1010.4
20260509191653 26 244 0.0 0.0 0.00 0.64 0.64 86 1010.5
20260509191150 26 243 0.0 1.6 0.00 0.64 0.64 87 1010.5
20260509190646 26 243 0.0 1.6 0.00 0.64 0.64 86 1010.8
20260509190144 26 244 1.6 1.6 0.00 0.64 0.64 87 1010.8
20260509185641 25 244 0.0 0.0 0.00 0.64 0.64 89 1010.7
20260509185137 25 244 0.0 1.6 0.00 0.64 0.64 86 1010.6
20260509184635 25 59 1.6 3.2 0.00 0.64 0.64 86 1010.6
20260509184132 25 234 0.0 3.2 0.00 0.64 0.64 88 1010.8
20260509183628 25 50 1.6 3.2 0.00 0.64 0.64 86 1010.8
20260509183123 25 37 1.6 3.2 0.00 0.64 0.64 90 1010.9
20260509182619 25 116 1.6 1.6 0.00 0.64 0.64 91 1011.1
20260509182117 25 179 0.0 0.0 0.00 0.64 0.64 89 1011.0
20260509181615 24 179 0.0 0.0 0.00 0.64 0.64 89 1010.9
20260509181112 24 180 0.0 0.0 0.00 0.64 0.64 90 1010.9
20260509180608 23 180 0.0 0.0 0.00 0.64 0.64 89 1011.0
20260509180105 23 180 0.0 1.6 0.00 0.64 0.64 88 1011.2
20260509175600 24 106 0.0 1.6 2.87 0.64 0.64 84 1011.3
20260509175058 26 102 3.2 9.7 3.66 0.61 0.61 76 1011.4
20260509174554 30 246 8.0 9.7 0.18 0.03 0.03 60 1011.3
20260509174049 31 207 1.6 3.2 0.00 0.00 0.00 55 1011.1